OAL893 MMTJ-MMTO

Flight info

Callsign OAL893
Flight time 2h 44m
Altitude 35000
Route TEVIR UT18 GOLFO UQ103 AGU UT127 ITLAS
Aircraft A310/H-SDFGHIM1RTUWXY/LB1

Departure

Time 2026-04-28 17:06
Airport General Abelardo L. Rodriguez International Airport (MMTJ)

Arrival

Time 2026-04-28 19:50
Airport Adolfo López Mateos International Airport (MMTO)
Time Latitude Longitude Altitude Speed Heading
2026-04-28 16:55 32.54496 -116.97511 476 ft 0 kts 74°
2026-04-28 16:59 32.54494 -116.97519 468 ft 3 kts 74°
2026-04-28 17:00 32.54488 -116.97541 471 ft 3 kts 74°
2026-04-28 17:00 32.54488 -116.97564 468 ft 3 kts 129°
2026-04-28 17:00 32.54504 -116.97578 469 ft 3 kts 169°
2026-04-28 17:00 32.54512 -116.97579 472 ft 0 kts 186°
2026-04-28 17:01 32.54499 -116.97581 468 ft 8 kts 186°
2026-04-28 17:02 32.54433 -116.97591 472 ft 10 kts 193°
2026-04-28 17:02 32.54409 -116.97629 473 ft 10 kts 259°
2026-04-28 17:02 32.54416 -116.97768 471 ft 13 kts 254°
2026-04-28 17:02 32.54382 -116.97839 474 ft 11 kts 277°
2026-04-28 17:03 32.54427 -116.98170 474 ft 23 kts 279°
2026-04-28 17:03 32.54451 -116.98353 476 ft 22 kts 279°
2026-04-28 17:03 32.54434 -116.98512 477 ft 19 kts 216°
2026-04-28 17:04 32.54307 -116.98498 484 ft 0 kts 100°
2026-04-28 17:05 32.54234 -116.97950 476 ft 93 kts 98°
2026-04-28 17:05 32.54100 -116.96950 469 ft 151 kts 98°
2026-04-28 17:05 32.53933 -116.95604 759 ft 171 kts 98°
2026-04-28 17:06 32.53603 -116.92765 1980 ft 181 kts 98°
2026-04-28 17:06 32.53423 -116.91253 2624 ft 190 kts 100°
2026-04-28 17:06 32.52191 -116.88411 3886 ft 199 kts 123°
2026-04-28 17:07 32.51444 -116.86973 4323 ft 212 kts 122°
2026-04-28 17:07 32.50654 -116.85419 4708 ft 229 kts 121°
2026-04-28 17:07 32.49815 -116.83726 5156 ft 246 kts 121°
2026-04-28 17:07 32.48929 -116.81932 5749 ft 258 kts 121°
2026-04-28 17:08 32.48012 -116.80048 6372 ft 270 kts 120°
2026-04-28 17:08 32.47078 -116.78085 7017 ft 282 kts 120°
2026-04-28 17:08 32.45907 -116.76215 7791 ft 287 kts 137°
2026-04-28 17:08 32.44363 -116.74682 8595 ft 293 kts 142°
2026-04-28 17:09 32.42732 -116.73193 9399 ft 299 kts 143°
2026-04-28 17:09 32.41070 -116.71676 10203 ft 304 kts 143°
2026-04-28 17:09 32.39365 -116.70108 10787 ft 318 kts 142°
2026-04-28 17:09 32.37584 -116.68434 11175 ft 336 kts 142°
2026-04-28 17:10 32.35724 -116.66679 11550 ft 353 kts 142°
2026-04-28 17:10 32.33752 -116.64819 11932 ft 369 kts 142°
2026-04-28 17:10 32.31703 -116.62887 12337 ft 383 kts 142°
2026-04-28 17:10 32.29603 -116.60907 12879 ft 389 kts 142°
2026-04-28 17:11 32.27470 -116.58904 13513 ft 394 kts 142°
2026-04-28 17:11 32.25339 -116.56897 14132 ft 399 kts 142°
2026-04-28 17:11 32.23158 -116.54849 14755 ft 403 kts 142°
2026-04-28 17:11 32.20956 -116.52783 15380 ft 406 kts 142°
2026-04-28 17:12 32.18944 -116.50433 15995 ft 411 kts 125°
2026-04-28 17:12 32.17656 -116.47412 16638 ft 414 kts 112°
2026-04-28 17:12 32.16637 -116.44231 17278 ft 416 kts 111°
2026-04-28 17:12 32.15556 -116.41045 17904 ft 419 kts 113°
2026-04-28 17:13 32.14368 -116.37892 18471 ft 423 kts 115°
2026-04-28 17:13 32.13115 -116.34733 19009 ft 427 kts 115°
2026-04-28 17:13 32.11827 -116.31568 19561 ft 430 kts 116°
2026-04-28 17:13 32.10535 -116.28373 20102 ft 433 kts 116°
2026-04-28 17:14 32.09238 -116.25154 20665 ft 435 kts 116°
2026-04-28 17:14 32.07926 -116.21921 21208 ft 438 kts 116°
2026-04-28 17:14 32.06608 -116.18670 21757 ft 440 kts 116°
2026-04-28 17:14 32.05287 -116.15405 22300 ft 443 kts 116°
2026-04-28 17:15 32.03951 -116.12124 22795 ft 446 kts 116°
2026-04-28 17:15 32.02612 -116.08819 23295 ft 449 kts 116°
2026-04-28 17:15 32.01274 -116.05541 23790 ft 451 kts 116°
2026-04-28 17:15 31.99918 -116.02199 24287 ft 453 kts 116°
2026-04-28 17:16 31.98546 -115.98845 24794 ft 455 kts 116°
2026-04-28 17:16 31.97171 -115.95463 25283 ft 458 kts 116°
2026-04-28 17:16 31.95782 -115.92076 25653 ft 462 kts 116°
2026-04-28 17:16 31.94386 -115.88647 26025 ft 466 kts 116°
2026-04-28 17:17 31.92969 -115.85198 26396 ft 470 kts 116°
2026-04-28 17:17 31.91547 -115.81711 26776 ft 474 kts 116°
2026-04-28 17:17 31.90029 -115.78255 27150 ft 477 kts 120°
2026-04-28 17:17 31.88244 -115.74949 27525 ft 480 kts 124°
2026-04-28 17:18 31.86345 -115.71703 27899 ft 483 kts 125°
2026-04-28 17:18 31.84427 -115.68437 28281 ft 486 kts 124°
2026-04-28 17:18 31.82542 -115.65130 28650 ft 489 kts 124°
2026-04-28 17:18 31.80671 -115.61789 29019 ft 491 kts 123°
2026-04-28 17:19 31.78796 -115.58427 29391 ft 490 kts 123°
2026-04-28 17:19 31.76952 -115.55115 29765 ft 490 kts 123°
2026-04-28 17:19 31.75069 -115.51731 30136 ft 489 kts 123°
2026-04-28 17:19 31.73231 -115.48431 30501 ft 488 kts 123°
2026-04-28 17:20 31.71350 -115.45110 30871 ft 487 kts 124°
2026-04-28 17:20 31.70090 -115.42868 31130 ft 487 kts 123°
2026-04-28 17:20 31.67626 -115.38479 31622 ft 486 kts 124°
2026-04-28 17:20 31.65753 -115.35176 32002 ft 485 kts 123°
2026-04-28 17:21 31.63906 -115.31878 32376 ft 484 kts 124°
2026-04-28 17:21 31.62035 -115.28592 32750 ft 483 kts 124°
2026-04-28 17:21 31.60160 -115.25317 33125 ft 483 kts 124°
2026-04-28 17:22 31.56462 -115.18756 33868 ft 481 kts 124°
2026-04-28 17:22 31.54604 -115.15496 34248 ft 480 kts 123°
2026-04-28 17:22 31.52763 -115.12224 34620 ft 479 kts 124°
2026-04-28 17:23 31.49056 -115.05708 34960 ft 480 kts 123°
2026-04-28 17:23 31.47207 -115.02454 34973 ft 478 kts 124°
2026-04-28 17:23 31.43523 -114.95980 34986 ft 478 kts 124°
2026-04-28 17:24 31.39829 -114.89502 35004 ft 478 kts 124°
2026-04-28 17:24 31.36137 -114.83049 35001 ft 478 kts 124°
2026-04-28 17:25 31.30627 -114.73412 34999 ft 478 kts 124°
2026-04-28 17:26 31.26930 -114.66983 35008 ft 478 kts 124°
2026-04-28 17:26 31.23228 -114.60538 35005 ft 478 kts 124°
2026-04-28 17:27 31.19529 -114.54094 34998 ft 478 kts 124°
2026-04-28 17:27 31.15825 -114.47639 34994 ft 478 kts 124°
2026-04-28 17:28 31.12124 -114.41186 35000 ft 478 kts 124°
2026-04-28 17:28 31.06534 -114.31547 35009 ft 477 kts 127°
2026-04-28 17:29 31.02399 -114.25492 34997 ft 477 kts 129°
2026-04-28 17:30 30.96216 -114.16451 35005 ft 477 kts 128°
2026-04-28 17:30 30.90045 -114.07338 35006 ft 477 kts 128°
2026-04-28 17:31 30.83859 -113.98229 35001 ft 478 kts 129°
2026-04-28 17:32 30.77669 -113.89146 35005 ft 478 kts 129°
2026-04-28 17:32 30.73543 -113.83099 35004 ft 477 kts 128°
2026-04-28 17:33 30.69409 -113.77044 35005 ft 478 kts 129°
2026-04-28 17:33 30.65975 -113.72035 35005 ft 478 kts 129°
2026-04-28 17:34 30.61139 -113.64980 35005 ft 478 kts 129°
2026-04-28 17:34 30.57034 -113.58989 34995 ft 478 kts 129°
2026-04-28 17:35 30.52896 -113.52949 35001 ft 477 kts 129°
2026-04-28 17:35 30.48761 -113.46910 34992 ft 478 kts 129°
2026-04-28 17:36 30.44627 -113.40871 34995 ft 477 kts 129°
2026-04-28 17:36 30.40473 -113.34855 35002 ft 478 kts 129°
2026-04-28 17:37 30.36330 -113.28846 35005 ft 477 kts 129°
2026-04-28 17:37 30.32178 -113.22849 35006 ft 478 kts 129°
2026-04-28 17:38 30.28041 -113.16890 34999 ft 477 kts 129°
2026-04-28 17:38 30.23870 -113.10899 34998 ft 477 kts 129°
2026-04-28 17:39 30.19702 -113.04914 35002 ft 478 kts 129°
2026-04-28 17:40 30.13456 -112.95944 35003 ft 478 kts 129°
2026-04-28 17:40 30.09306 -112.90008 35006 ft 477 kts 129°
2026-04-28 17:41 30.05134 -112.84046 35001 ft 477 kts 129°
2026-04-28 17:41 30.00962 -112.78071 35002 ft 477 kts 129°
2026-04-28 17:42 29.96782 -112.72121 35003 ft 477 kts 129°
2026-04-28 17:42 29.92596 -112.66164 35000 ft 478 kts 129°
2026-04-28 17:43 29.88416 -112.60219 35000 ft 477 kts 129°
2026-04-28 17:43 29.84237 -112.54277 34998 ft 478 kts 129°
2026-04-28 17:44 29.80046 -112.48332 35000 ft 477 kts 129°
2026-04-28 17:44 29.75863 -112.42398 35006 ft 477 kts 129°
2026-04-28 17:45 29.71683 -112.36464 34989 ft 478 kts 129°
2026-04-28 17:45 29.67525 -112.30560 35005 ft 477 kts 129°
2026-04-28 17:46 29.63301 -112.24607 35002 ft 477 kts 129°
2026-04-28 17:46 29.59107 -112.18694 34993 ft 477 kts 130°
2026-04-28 17:47 29.54927 -112.12819 35006 ft 477 kts 129°
2026-04-28 17:47 29.50719 -112.06923 34999 ft 477 kts 129°
2026-04-28 17:48 29.46509 -112.01032 35000 ft 478 kts 129°
2026-04-28 17:48 29.42290 -111.95136 34995 ft 477 kts 129°
2026-04-28 17:49 29.38076 -111.89254 35005 ft 477 kts 130°
2026-04-28 17:49 29.33868 -111.83368 34990 ft 477 kts 130°
2026-04-28 17:50 29.29646 -111.77482 35002 ft 477 kts 130°
2026-04-28 17:50 29.25412 -111.71610 35006 ft 477 kts 129°
2026-04-28 17:51 29.21186 -111.65748 34999 ft 477 kts 130°
2026-04-28 17:51 29.16990 -111.59911 34999 ft 477 kts 130°
2026-04-28 17:52 29.12746 -111.54055 34993 ft 477 kts 130°
2026-04-28 17:52 29.06404 -111.45270 34987 ft 477 kts 130°
2026-04-28 17:53 29.02168 -111.39429 34997 ft 477 kts 130°
2026-04-28 17:53 28.97934 -111.33589 35005 ft 477 kts 130°
2026-04-28 17:54 28.93694 -111.27740 34999 ft 477 kts 130°
2026-04-28 17:54 28.90175 -111.22882 35003 ft 477 kts 130°
2026-04-28 17:55 28.85944 -111.17040 34996 ft 477 kts 130°
2026-04-28 17:55 28.81020 -111.10274 34998 ft 477 kts 130°
2026-04-28 17:56 28.77461 -111.05394 35004 ft 477 kts 130°
2026-04-28 17:56 28.73205 -110.99639 35007 ft 477 kts 131°
2026-04-28 17:57 28.68870 -110.93914 35003 ft 477 kts 130°
2026-04-28 17:57 28.64619 -110.88092 35004 ft 477 kts 130°
2026-04-28 17:58 28.60344 -110.82295 34999 ft 477 kts 130°
2026-04-28 17:58 28.56079 -110.76492 35003 ft 477 kts 130°
2026-04-28 17:59 28.51819 -110.70703 34999 ft 477 kts 130°
2026-04-28 17:59 28.47552 -110.64922 34997 ft 477 kts 130°
2026-04-28 18:00 28.43303 -110.59177 35003 ft 477 kts 130°
2026-04-28 18:00 28.39018 -110.53401 35003 ft 477 kts 130°
2026-04-28 18:01 28.34753 -110.47626 35003 ft 477 kts 130°
2026-04-28 18:01 28.30467 -110.41874 35005 ft 477 kts 130°
2026-04-28 18:02 28.26190 -110.36097 35006 ft 477 kts 130°
2026-04-28 18:02 28.21905 -110.30349 35000 ft 477 kts 130°
2026-04-28 18:03 28.17613 -110.24593 35006 ft 477 kts 130°
2026-04-28 18:03 28.13331 -110.18846 35004 ft 477 kts 130°
2026-04-28 18:04 28.09043 -110.13089 35005 ft 477 kts 130°
2026-04-28 18:04 28.04765 -110.07343 35003 ft 477 kts 130°
2026-04-28 18:05 28.01207 -110.02563 35007 ft 477 kts 130°
2026-04-28 18:05 27.96216 -109.95899 35003 ft 477 kts 131°
2026-04-28 18:06 27.91925 -109.90172 34995 ft 477 kts 131°
2026-04-28 18:06 27.87624 -109.84456 34998 ft 477 kts 130°
2026-04-28 18:07 27.83313 -109.78737 35001 ft 477 kts 130°
2026-04-28 18:07 27.78996 -109.73025 35003 ft 477 kts 130°
2026-04-28 18:08 27.74687 -109.67325 35000 ft 477 kts 131°
2026-04-28 18:08 27.70377 -109.61612 35007 ft 477 kts 131°
2026-04-28 18:09 27.66067 -109.55917 35003 ft 477 kts 131°
2026-04-28 18:09 27.61745 -109.50219 35002 ft 477 kts 131°
2026-04-28 18:10 27.57424 -109.44539 35000 ft 477 kts 130°
2026-04-28 18:10 27.53105 -109.38860 35000 ft 477 kts 131°
2026-04-28 18:11 27.48810 -109.33209 35001 ft 477 kts 131°
2026-04-28 18:11 27.44481 -109.27543 35005 ft 477 kts 130°
2026-04-28 18:12 27.40155 -109.21861 35004 ft 477 kts 131°
2026-04-28 18:12 27.35816 -109.16194 35002 ft 477 kts 131°
2026-04-28 18:13 27.31484 -109.10539 34985 ft 477 kts 131°
2026-04-28 18:13 27.27175 -109.04912 34999 ft 477 kts 131°
2026-04-28 18:14 27.22847 -108.99257 34996 ft 477 kts 131°
2026-04-28 18:14 27.18520 -108.93602 35001 ft 477 kts 131°
2026-04-28 18:15 27.14189 -108.87939 34992 ft 477 kts 131°
2026-04-28 18:15 27.09865 -108.82286 34997 ft 477 kts 131°
2026-04-28 18:16 27.05516 -108.76660 34995 ft 477 kts 131°
2026-04-28 18:16 27.01158 -108.71029 34999 ft 477 kts 131°
2026-04-28 18:17 26.96804 -108.65396 35006 ft 477 kts 131°
2026-04-28 18:17 26.92458 -108.59774 34996 ft 477 kts 131°
2026-04-28 18:18 26.88100 -108.54149 35005 ft 477 kts 131°
2026-04-28 18:18 26.84476 -108.49484 35005 ft 477 kts 131°
2026-04-28 18:19 26.79378 -108.42928 35006 ft 477 kts 131°
2026-04-28 18:19 26.75014 -108.37333 35001 ft 477 kts 131°
2026-04-28 18:20 26.70679 -108.31760 34987 ft 477 kts 131°
2026-04-28 18:20 26.66318 -108.26165 34993 ft 477 kts 131°
2026-04-28 18:21 26.61951 -108.20579 35004 ft 477 kts 131°
2026-04-28 18:21 26.57560 -108.15001 34987 ft 477 kts 132°
2026-04-28 18:22 26.53143 -108.09469 34993 ft 477 kts 131°
2026-04-28 18:22 26.48744 -108.03890 34997 ft 477 kts 131°
2026-04-28 18:23 26.44370 -107.98323 34998 ft 477 kts 131°
2026-04-28 18:23 26.40022 -107.92708 34167 ft 477 kts 135°
2026-04-28 18:24 26.38028 -107.89784 34632 ft 473 kts 134°
2026-04-28 18:24 26.36705 -107.87849 34792 ft 473 kts 135°
2026-04-28 18:24 26.33915 -107.84048 34942 ft 476 kts 137°
2026-04-28 18:24 26.31751 -107.81299 34977 ft 480 kts 139°
2026-04-28 18:25 26.27241 -107.75679 35005 ft 493 kts 139°
2026-04-28 18:26 26.20283 -107.66918 34999 ft 514 kts 137°
2026-04-28 18:26 26.15500 -107.60899 35004 ft 522 kts 137°
2026-04-28 18:27 26.10707 -107.54832 34996 ft 520 kts 138°
2026-04-28 18:27 26.05904 -107.48798 35005 ft 521 kts 137°
2026-04-28 18:28 26.01091 -107.42749 35007 ft 521 kts 137°
2026-04-28 18:28 25.96312 -107.36749 35006 ft 522 kts 137°
2026-04-28 18:29 25.91510 -107.30712 35016 ft 521 kts 137°
2026-04-28 18:29 25.86679 -107.24663 35019 ft 522 kts 137°
2026-04-28 18:30 25.81855 -107.18650 35021 ft 521 kts 137°
2026-04-28 18:30 25.77050 -107.12625 35030 ft 520 kts 137°
2026-04-28 18:31 25.72231 -107.06634 35030 ft 521 kts 137°
2026-04-28 18:31 25.67418 -107.00615 35032 ft 521 kts 137°
2026-04-28 18:32 25.62608 -106.94641 35026 ft 520 kts 137°
2026-04-28 18:32 25.57784 -106.88654 35011 ft 521 kts 137°
2026-04-28 18:33 25.52973 -106.82683 35003 ft 519 kts 137°
2026-04-28 18:33 25.48151 -106.76713 34998 ft 520 kts 137°
2026-04-28 18:34 25.43347 -106.70746 34985 ft 519 kts 137°
2026-04-28 18:34 25.38566 -106.64845 34985 ft 519 kts 137°
2026-04-28 18:35 25.33737 -106.58887 34997 ft 520 kts 137°
2026-04-28 18:35 25.28923 -106.52951 34980 ft 518 kts 137°
2026-04-28 18:36 25.24124 -106.47020 34976 ft 518 kts 137°
2026-04-28 18:36 25.19292 -106.41099 35001 ft 520 kts 137°
2026-04-28 18:37 25.14471 -106.35165 34969 ft 519 kts 138°
2026-04-28 18:37 25.09628 -106.29227 34971 ft 521 kts 137°
2026-04-28 18:38 25.04790 -106.23290 34989 ft 518 kts 137°
2026-04-28 18:38 24.99949 -106.17391 34983 ft 519 kts 137°
2026-04-28 18:39 24.95113 -106.11541 34990 ft 519 kts 138°
2026-04-28 18:39 24.90248 -106.05650 34970 ft 519 kts 137°
2026-04-28 18:40 24.85414 -105.99764 34943 ft 518 kts 137°
2026-04-28 18:40 24.80592 -105.93876 34950 ft 517 kts 137°
2026-04-28 18:41 24.75761 -105.88014 34946 ft 518 kts 137°
2026-04-28 18:41 24.70933 -105.82131 34940 ft 517 kts 137°
2026-04-28 18:42 24.66082 -105.76292 34935 ft 517 kts 137°
2026-04-28 18:42 24.61285 -105.70469 34925 ft 516 kts 137°
2026-04-28 18:43 24.56459 -105.64621 34935 ft 516 kts 137°
2026-04-28 18:43 24.52438 -105.59788 34925 ft 515 kts 137°
2026-04-28 18:44 24.47628 -105.53963 34919 ft 515 kts 137°
2026-04-28 18:44 24.40382 -105.45247 34910 ft 515 kts 137°
2026-04-28 18:45 24.35525 -105.39401 34914 ft 515 kts 137°
2026-04-28 18:45 24.30690 -105.33589 34909 ft 515 kts 137°
2026-04-28 18:46 24.25910 -105.27822 34889 ft 514 kts 137°
2026-04-28 18:46 24.23501 -105.24916 34716 ft 514 kts 136°
2026-04-28 18:46 24.21077 -105.22044 34819 ft 512 kts 137°
2026-04-28 18:47 24.16198 -105.16373 34868 ft 512 kts 136°
2026-04-28 18:47 24.11382 -105.10596 34881 ft 514 kts 135°
2026-04-28 18:48 24.06547 -105.04838 34864 ft 515 kts 135°
2026-04-28 18:48 24.01711 -104.99064 34855 ft 515 kts 136°
2026-04-28 18:49 23.97677 -104.94257 34867 ft 516 kts 136°
2026-04-28 18:49 23.94425 -104.90375 35009 ft 516 kts 135°
2026-04-28 18:49 23.92021 -104.87523 35007 ft 516 kts 136°
2026-04-28 18:50 23.87163 -104.81740 35007 ft 516 kts 136°
2026-04-28 18:50 23.82295 -104.75957 35010 ft 516 kts 136°
2026-04-28 18:51 23.77420 -104.70190 35001 ft 518 kts 135°
2026-04-28 18:51 23.72539 -104.64414 35004 ft 518 kts 136°
2026-04-28 18:52 23.67661 -104.58622 35008 ft 518 kts 136°
2026-04-28 18:52 23.62769 -104.52848 35008 ft 517 kts 136°
2026-04-28 18:53 23.57881 -104.47087 35014 ft 517 kts 136°
2026-04-28 18:53 23.53004 -104.41331 35008 ft 517 kts 136°
2026-04-28 18:54 23.48120 -104.35582 34999 ft 516 kts 136°
2026-04-28 18:54 23.43268 -104.29882 35011 ft 515 kts 136°
2026-04-28 18:55 23.39180 -104.25087 35004 ft 515 kts 136°
2026-04-28 18:55 23.33519 -104.18443 35002 ft 515 kts 136°
2026-04-28 18:56 23.28644 -104.12742 35007 ft 515 kts 136°
2026-04-28 18:56 23.23769 -104.07055 35008 ft 513 kts 136°
2026-04-28 18:57 23.18887 -104.01360 35013 ft 514 kts 136°
2026-04-28 18:57 23.14022 -103.95669 35010 ft 514 kts 136°
2026-04-28 18:58 23.09135 -103.89982 35010 ft 514 kts 136°
2026-04-28 18:58 23.04258 -103.84314 35015 ft 514 kts 136°
2026-04-28 18:59 22.99383 -103.78637 35005 ft 514 kts 136°
2026-04-28 18:59 22.94502 -103.72953 35008 ft 514 kts 136°
2026-04-28 19:00 22.89623 -103.67292 35008 ft 513 kts 136°
2026-04-28 19:00 22.84750 -103.61648 35010 ft 512 kts 136°
2026-04-28 19:01 22.79877 -103.56003 35005 ft 512 kts 135°
2026-04-28 19:01 22.75043 -103.50414 35004 ft 511 kts 136°
2026-04-28 19:02 22.72604 -103.47603 34866 ft 512 kts 135°
2026-04-28 19:02 22.70164 -103.44801 34863 ft 513 kts 136°
2026-04-28 19:02 22.65295 -103.39172 34859 ft 512 kts 135°
2026-04-28 19:03 22.60413 -103.33540 34855 ft 512 kts 135°
2026-04-28 19:03 22.55523 -103.27917 34854 ft 512 kts 135°
2026-04-28 19:04 22.50657 -103.22287 34840 ft 513 kts 135°
2026-04-28 19:04 22.45761 -103.16673 34839 ft 512 kts 135°
2026-04-28 19:05 22.40879 -103.11067 34844 ft 511 kts 135°
2026-04-28 19:05 22.36011 -103.05469 34837 ft 511 kts 135°
2026-04-28 19:06 22.31961 -103.00819 34836 ft 511 kts 135°
2026-04-28 19:06 22.26295 -102.94341 34833 ft 510 kts 135°
2026-04-28 19:07 22.21393 -102.88797 34839 ft 510 kts 135°
2026-04-28 19:07 22.16535 -102.83234 34827 ft 509 kts 135°
2026-04-28 19:08 22.11668 -102.77678 34836 ft 509 kts 135°
2026-04-28 19:08 22.06803 -102.72147 34825 ft 508 kts 134°
2026-04-28 19:09 22.01965 -102.66654 34831 ft 508 kts 134°
2026-04-28 19:09 21.97114 -102.61127 34825 ft 508 kts 135°
2026-04-28 19:10 21.92252 -102.55607 34906 ft 507 kts 134°
2026-04-28 19:10 21.87392 -102.50107 35030 ft 507 kts 134°
2026-04-28 19:11 21.82529 -102.44590 35162 ft 507 kts 134°
2026-04-28 19:11 21.77678 -102.39088 35285 ft 507 kts 134°
2026-04-28 19:12 21.72802 -102.33590 35305 ft 507 kts 134°
2026-04-28 19:12 21.67964 -102.28064 35302 ft 508 kts 133°
2026-04-28 19:13 21.63202 -102.22438 35262 ft 508 kts 133°
2026-04-28 19:13 21.58453 -102.16864 35123 ft 509 kts 133°
2026-04-28 19:14 21.53680 -102.11258 34991 ft 509 kts 133°
2026-04-28 19:14 21.48904 -102.05634 34969 ft 509 kts 133°
2026-04-28 19:15 21.44135 -102.00040 34927 ft 508 kts 133°
2026-04-28 19:15 21.40162 -101.95400 34929 ft 507 kts 133°
2026-04-28 19:16 21.34589 -101.88871 34927 ft 508 kts 133°
2026-04-28 19:16 21.29811 -101.83280 34927 ft 508 kts 133°
2026-04-28 19:17 21.25037 -101.77705 34928 ft 508 kts 132°
2026-04-28 19:17 21.20258 -101.72130 34995 ft 508 kts 133°
2026-04-28 19:18 21.15487 -101.66544 35094 ft 508 kts 133°
2026-04-28 19:18 21.10707 -101.60963 35189 ft 509 kts 133°
2026-04-28 19:19 21.05944 -101.55413 35294 ft 509 kts 132°
2026-04-28 19:19 21.01148 -101.49841 35298 ft 509 kts 132°
2026-04-28 19:20 20.96448 -101.44144 35301 ft 509 kts 130°
2026-04-28 19:20 20.91906 -101.38339 35258 ft 509 kts 130°
2026-04-28 19:21 20.87343 -101.32560 35168 ft 509 kts 130°
2026-04-28 19:21 20.85043 -101.29653 35036 ft 509 kts 130°
2026-04-28 19:21 20.82762 -101.26774 34966 ft 509 kts 130°
2026-04-28 19:22 20.79724 -101.22942 34875 ft 509 kts 130°
2026-04-28 19:22 20.75893 -101.18115 34762 ft 509 kts 130°
2026-04-28 19:22 20.73630 -101.15264 34757 ft 509 kts 130°
2026-04-28 19:23 20.69034 -101.09497 34753 ft 509 kts 130°
2026-04-28 19:23 20.64424 -101.03760 34750 ft 509 kts 130°
2026-04-28 19:24 20.59831 -100.97993 34756 ft 509 kts 128°
2026-04-28 19:24 20.55934 -100.91700 34759 ft 508 kts 118°
2026-04-28 19:25 20.52362 -100.85199 34766 ft 508 kts 120°
2026-04-28 19:25 20.48673 -100.78813 34763 ft 509 kts 121°
2026-04-28 19:26 20.44936 -100.72399 34774 ft 509 kts 121°
2026-04-28 19:26 20.41205 -100.66008 34372 ft 501 kts 121°
2026-04-28 19:27 20.39381 -100.62890 33992 ft 493 kts 121°
2026-04-28 19:27 20.37581 -100.59818 33624 ft 484 kts 121°
2026-04-28 19:27 20.35809 -100.56798 33204 ft 476 kts 121°
2026-04-28 19:27 20.34075 -100.53837 32811 ft 468 kts 121°
2026-04-28 19:28 20.32353 -100.50920 32413 ft 461 kts 122°
2026-04-28 19:28 20.30520 -100.48146 32021 ft 454 kts 126°
2026-04-28 19:28 20.28620 -100.45486 31634 ft 447 kts 127°
2026-04-28 19:28 20.26747 -100.42883 31257 ft 440 kts 126°
2026-04-28 19:29 20.24923 -100.40344 30889 ft 434 kts 126°
2026-04-28 19:29 20.23705 -100.38619 30638 ft 429 kts 126°
2026-04-28 19:29 20.21371 -100.35273 30154 ft 421 kts 126°
2026-04-28 19:29 20.19618 -100.32799 29776 ft 415 kts 126°
2026-04-28 19:30 20.17902 -100.30363 29357 ft 409 kts 126°
2026-04-28 19:30 20.16196 -100.27947 28924 ft 404 kts 126°
2026-04-28 19:30 20.14521 -100.25569 28524 ft 398 kts 126°
2026-04-28 19:30 20.12868 -100.23232 28099 ft 394 kts 126°
2026-04-28 19:31 20.11233 -100.20915 27696 ft 389 kts 126°
2026-04-28 19:31 20.09622 -100.18634 27306 ft 385 kts 126°
2026-04-28 19:31 20.08554 -100.17127 27048 ft 383 kts 126°
2026-04-28 19:31 20.06962 -100.14865 26664 ft 380 kts 126°
2026-04-28 19:32 20.05375 -100.12632 26289 ft 378 kts 126°
2026-04-28 19:32 20.03800 -100.10400 25915 ft 376 kts 125°
2026-04-28 19:32 20.02234 -100.08182 25541 ft 373 kts 126°
2026-04-28 19:32 20.00674 -100.05991 25182 ft 371 kts 126°
2026-04-28 19:33 19.99126 -100.03803 24816 ft 369 kts 125°
2026-04-28 19:33 19.97590 -100.01626 24458 ft 366 kts 125°
2026-04-28 19:33 19.95966 -99.99561 24102 ft 365 kts 139°
2026-04-28 19:33 19.93872 -99.98055 23776 ft 363 kts 149°
2026-04-28 19:34 19.91642 -99.96794 23419 ft 362 kts 151°
2026-04-28 19:34 19.89418 -99.95540 23030 ft 361 kts 150°
2026-04-28 19:34 19.87232 -99.94242 22615 ft 358 kts 148°
2026-04-28 19:34 19.85092 -99.92920 22215 ft 355 kts 148°
2026-04-28 19:35 19.82969 -99.91572 21802 ft 353 kts 147°
2026-04-28 19:35 19.80872 -99.90237 21404 ft 350 kts 147°
2026-04-28 19:35 19.78792 -99.88914 21010 ft 347 kts 147°
2026-04-28 19:35 19.76729 -99.87605 20622 ft 344 kts 147°
2026-04-28 19:36 19.74686 -99.86307 20246 ft 340 kts 147°
2026-04-28 19:36 19.72663 -99.85024 19864 ft 337 kts 147°
2026-04-28 19:36 19.70659 -99.83755 19499 ft 334 kts 147°
2026-04-28 19:36 19.68697 -99.82518 19120 ft 331 kts 147°
2026-04-28 19:37 19.66733 -99.81284 18755 ft 327 kts 147°
2026-04-28 19:37 19.64984 -99.80183 18430 ft 324 kts 146°
2026-04-28 19:37 19.63112 -99.78869 18057 ft 321 kts 143°
2026-04-28 19:38 19.61299 -99.77503 17689 ft 318 kts 142°
2026-04-28 19:38 19.59504 -99.76139 17340 ft 316 kts 142°
2026-04-28 19:38 19.57721 -99.74781 16982 ft 315 kts 142°
2026-04-28 19:38 19.55943 -99.73429 16639 ft 313 kts 142°
2026-04-28 19:39 19.54198 -99.72105 16301 ft 312 kts 142°
2026-04-28 19:39 19.52438 -99.70766 16000 ft 310 kts 142°
2026-04-28 19:39 19.50681 -99.69429 15718 ft 309 kts 142°
2026-04-28 19:39 19.48933 -99.68104 15429 ft 308 kts 142°
2026-04-28 19:40 19.47196 -99.66785 15162 ft 307 kts 142°
2026-04-28 19:40 19.45458 -99.65466 14892 ft 306 kts 142°
2026-04-28 19:40 19.43729 -99.64156 14615 ft 305 kts 142°
2026-04-28 19:40 19.41999 -99.62861 14356 ft 304 kts 143°
2026-04-28 19:41 19.40262 -99.61598 14037 ft 303 kts 143°
2026-04-28 19:41 19.38531 -99.60346 13720 ft 301 kts 143°
2026-04-28 19:41 19.36802 -99.59097 13420 ft 300 kts 143°
2026-04-28 19:41 19.35080 -99.57849 13127 ft 299 kts 143°
2026-04-28 19:42 19.33280 -99.56831 12839 ft 299 kts 162°
2026-04-28 19:42 19.31234 -99.56563 12555 ft 294 kts 177°
2026-04-28 19:42 19.29208 -99.56575 12318 ft 287 kts 179°
2026-04-28 19:42 19.27875 -99.56602 12193 ft 281 kts 178°
2026-04-28 19:43 19.25356 -99.56503 11940 ft 267 kts 174°
2026-04-28 19:43 19.23536 -99.56391 11721 ft 257 kts 174°
2026-04-28 19:43 19.21778 -99.56277 11501 ft 248 kts 174°
2026-04-28 19:43 19.20096 -99.56168 11283 ft 237 kts 174°
2026-04-28 19:44 19.18483 -99.56065 11047 ft 228 kts 174°
2026-04-28 19:44 19.16915 -99.55964 10815 ft 222 kts 174°
2026-04-28 19:44 19.15426 -99.55748 10622 ft 211 kts 154°
2026-04-28 19:44 19.14338 -99.54832 10457 ft 198 kts 117°
2026-04-28 19:45 19.14043 -99.53479 10428 ft 192 kts 80°
2026-04-28 19:45 19.14609 -99.52268 10416 ft 182 kts 41°
2026-04-28 19:45 19.15782 -99.51745 10434 ft 186 kts
2026-04-28 19:45 19.17027 -99.51943 10409 ft 181 kts 349°
2026-04-28 19:46 19.18239 -99.52242 10365 ft 178 kts 349°
2026-04-28 19:46 19.19439 -99.52540 10330 ft 176 kts 349°
2026-04-28 19:46 19.20631 -99.52837 10298 ft 175 kts 349°
2026-04-28 19:46 19.21827 -99.53126 10154 ft 175 kts 349°
2026-04-28 19:47 19.23005 -99.53415 10055 ft 173 kts 349°
2026-04-28 19:47 19.24173 -99.53701 9900 ft 173 kts 349°
2026-04-28 19:47 19.25334 -99.53982 9689 ft 169 kts 353°
2026-04-28 19:47 19.26480 -99.54169 9554 ft 167 kts 354°
2026-04-28 19:48 19.27632 -99.54343 9400 ft 167 kts 354°
2026-04-28 19:48 19.28762 -99.54490 9165 ft 160 kts 353°
2026-04-28 19:48 19.29825 -99.54791 9005 ft 160 kts 333°
2026-04-28 19:48 19.30838 -99.55302 8747 ft 162 kts 335°
2026-04-28 19:49 19.31890 -99.55778 8523 ft 167 kts 335°
2026-04-28 19:49 19.32959 -99.56261 8481 ft 161 kts 335°
2026-04-28 19:49 19.33830 -99.56657 8479 ft 111 kts 336°
2026-04-28 19:49 19.34376 -99.56904 8482 ft 57 kts 336°
2026-04-28 19:50 19.34502 -99.57066 8481 ft 10 kts 215°
2026-04-28 19:50 19.34450 -99.57104 8482 ft 8 kts 214°
2026-04-28 19:50 19.34401 -99.57109 8484 ft 7 kts 159°
2026-04-28 19:51 19.34366 -99.57111 8486 ft 4 kts 222°
2026-04-28 19:51 19.34347 -99.57151 8484 ft 9 kts 245°
2026-04-28 19:51 19.34323 -99.57210 8483 ft 8 kts 247°
2026-04-28 19:51 19.34300 -99.57258 8482 ft 6 kts 225°
2026-04-28 19:52 19.34270 -99.57254 8483 ft 4 kts 158°
2026-04-28 19:52 19.34253 -99.57247 8484 ft 0 kts 158°